Flag for Germany Weather past 2 weeks in Dresden, Saxony, Germany

Now
54 °F

Clear.


Feels Like: 53 °F
Forecast: 50 / 78 °F
Wind: 5 mph from West

Location: Dresden-Klotzsche

Current Time: Jul 31, 2015 at 3:36:00 AM

Latest Report: Jul 31, 2015 at 3:20 AM


Visibility: 10 mi

Pressure: 30.04 "Hg

Humidity: 72%

Dew point: 45 °F

Location of DresdenLocation

Historic Weather in Dresden — Graph

°F

Dresden temperature yesterday

Maximum temperature yesterday: 68 °F (at 3:20 PM)
Minimum temperature yesterday: 52 °F (at 4:50 AM)
Average temperature yesterday: 60 °F

Past Weeks' High & Low Weather Summary

 TemperatureHumidityPressure
High93 °F (Jul 17, 4:50 PM)100% (Jul 19, 8:20 PM)30.09 "Hg (Jul 19, 8:20 PM)
Low52 °F (Jul 29, 10:20 PM)21% (Jul 17, 5:20 PM)29.59 "Hg (Jul 27, 2:50 PM)
Average69 °F62%29.89 "Hg
* Reported Jul 16 2:20 AM — Jul 31 2:20 AM, Dresden, Weather by CustomWeather, © 2015

Note: Actual official high and low records may vary slightly from our data, if they occured in-between our weather recording intervals... More about our weather records

Advertising

Dresden weather history for previous 24 hours

 ConditionsComfort  
Time TempWeatherWind HumidityBarometerVisibility
2:20 AM
Fri, Jul 31
54 °FClear.3 mph72%30.04 "Hg10 mi
1:50 AM54 °FClear.5 mph72%30.04 "Hg10 mi
1:20 AM55 °FClear.6 mph67%30.04 "Hg10 mi
12:50 AM55 °FClear.6 mph67%30.01 "Hg10 mi
11:20 PM
Thu, Jul 30
59 °FPassing clouds.5 mph59%29.98 "HgN/A
10:50 PM59 °FClear.6 mph55%29.98 "Hg10 mi
10:20 PM61 °FClear.5 mph52%29.98 "Hg10 mi
9:50 PM59 °FSunny.2 mph55%29.98 "Hg10 mi
9:20 PM59 °FSunny.2 mph51%29.98 "Hg10 mi
8:50 PM61 °FSunny.5 mph48%29.95 "Hg10 mi
8:20 PM63 °FSunny.3 mph42%29.95 "Hg10 mi
7:50 PM64 °FSunny.8 mph40%29.95 "Hg10 mi
7:20 PM66 °FScattered clouds.7 mph35%29.95 "HgN/A
6:50 PM64 °FScattered clouds.9 mph40%29.95 "HgN/A
6:20 PM68 °FScattered clouds.15 mph35%29.92 "HgN/A
5:50 PM66 °FPartly sunny.14 mph37%29.92 "HgN/A
5:20 PM68 °FScattered clouds.14 mph35%29.92 "HgN/A
4:50 PM66 °FScattered clouds.10 mph37%29.92 "HgN/A
4:20 PM66 °FPassing clouds.13 mph40%29.92 "HgN/A
3:50 PM66 °FPassing clouds.12 mph40%29.92 "HgN/A
3:20 PM68 °FPassing clouds.13 mph40%29.92 "HgN/A
2:50 PM66 °FPassing clouds.13 mph40%29.92 "HgN/A
2:20 PM66 °FPassing clouds.15 mph40%29.92 "HgN/A
1:50 PM66 °FPassing clouds.15 mph40%29.92 "HgN/A
1:20 PM64 °FPassing clouds.15 mph40%29.92 "HgN/A
12:50 PM64 °FPassing clouds.14 mph43%29.92 "HgN/A
12:20 PM64 °FScattered clouds.15 mph43%29.92 "HgN/A
11:50 AM63 °FScattered clouds.18 mph42%29.92 "HgN/A
11:20 AM63 °FPassing clouds.17 mph45%29.92 "HgN/A
10:20 AM61 °FPassing clouds.17 mph52%29.89 "HgN/A
9:50 AM61 °FPassing clouds.21 mph52%29.89 "HgN/A
9:20 AM59 °FPassing clouds.16 mph51%29.89 "HgN/A
8:50 AM59 °FPassing clouds.18 mph55%29.89 "HgN/A
8:20 AM57 °FPassing clouds.15 mph59%29.89 "HgN/A
7:50 AM57 °FPassing clouds.13 mph59%29.89 "HgN/A
7:20 AM55 °FPassing clouds.13 mph63%29.89 "HgN/A
6:50 AM54 °FPassing clouds.10 mph67%29.89 "HgN/A
6:20 AM54 °FPassing clouds.10 mph67%29.89 "HgN/A
5:50 AM52 °FPassing clouds.10 mph72%29.89 "HgN/A
5:20 AM52 °FClear.10 mph72%29.86 "Hg10 mi
4:50 AM52 °FClear.12 mph72%29.86 "Hg10 mi
4:20 AM54 °FPassing clouds.9 mph72%29.86 "HgN/A
3:50 AM54 °FPassing clouds.10 mph72%29.86 "HgN/A
3:20 AM54 °FPassing clouds.9 mph72%29.86 "HgN/A
Weather by CustomWeather, © 2015

See weather overviewHow to use our weather pages